Year,Month,Day,Hour,Minute,Value (Times are PST for temperature in C)
2016,12,06,06,19,-0.80
2016,12,06,06,20,-0.80
2016,12,06,06,21,-0.80
2016,12,06,06,22,-0.80
2016,12,06,06,23,-0.80
2016,12,06,06,24,-0.80
2016,12,06,06,25,-0.80
2016,12,06,06,26,-0.80
2016,12,06,06,27,-0.80
2016,12,06,06,28,-0.80
2016,12,06,06,29,-0.80
2016,12,06,06,30,-0.90
2016,12,06,06,31,-0.90
2016,12,06,06,32,-0.90
2016,12,06,06,33,-0.90
2016,12,06,06,34,-0.90
2016,12,06,06,35,-0.90
2016,12,06,06,36,-0.90
2016,12,06,06,37,-0.90
2016,12,06,06,38,-0.90
2016,12,06,06,39,-0.90
2016,12,06,06,40,-0.90
2016,12,06,06,41,-0.80
2016,12,06,06,42,-0.80
2016,12,06,06,43,-0.80
2016,12,06,06,44,-0.80
2016,12,06,06,45,-0.90
2016,12,06,06,46,-0.90
2016,12,06,06,47,-0.90
2016,12,06,06,48,-0.90
2016,12,06,06,49,-0.90
2016,12,06,06,50,-0.90
2016,12,06,06,51,-0.90
2016,12,06,06,52,-0.90
2016,12,06,06,53,-0.90
2016,12,06,06,54,-0.80
2016,12,06,06,55,-0.80
2016,12,06,06,56,-0.80
2016,12,06,06,57,-0.80
2016,12,06,06,58,-0.80
2016,12,06,06,59,-0.80
2016,12,06,07,00,-0.80
2016,12,06,07,01,-0.80
2016,12,06,07,02,-0.70
2016,12,06,07,03,-0.70
2016,12,06,07,04,-0.70
2016,12,06,07,05,-0.70
2016,12,06,07,06,-0.70
2016,12,06,07,07,-0.80
2016,12,06,07,08,-0.80
2016,12,06,07,09,-0.90
2016,12,06,07,10,-0.90
2016,12,06,07,11,-1.00
2016,12,06,07,12,-1.00
2016,12,06,07,13,-1.00
2016,12,06,07,14,-1.00
2016,12,06,07,15,-1.00
2016,12,06,07,16,-0.90
2016,12,06,07,17,-0.90
2016,12,06,07,18,-0.90
2016,12,06,07,19,-0.90
2016,12,06,07,20,-0.90
2016,12,06,07,21,-0.90
2016,12,06,07,22,-0.90
2016,12,06,07,23,-0.90
2016,12,06,07,24,-0.90
2016,12,06,07,25,-0.90
2016,12,06,07,26,-0.90
2016,12,06,07,27,-0.90
2016,12,06,07,28,-0.90
2016,12,06,07,29,-0.90
2016,12,06,07,30,-0.90
2016,12,06,07,31,-0.90
2016,12,06,07,32,-0.90
2016,12,06,07,33,-0.80
2016,12,06,07,34,-0.80
2016,12,06,07,35,-0.80
2016,12,06,07,36,-0.80
2016,12,06,07,37,-0.70
2016,12,06,07,38,-0.70
2016,12,06,07,39,-0.60
2016,12,06,07,40,-0.60
2016,12,06,07,41,-0.50
2016,12,06,07,42,-0.50
2016,12,06,07,43,-0.60
2016,12,06,07,44,-0.60
2016,12,06,07,45,-0.70
2016,12,06,07,46,-0.70
2016,12,06,07,47,-0.70
2016,12,06,07,48,-0.70
2016,12,06,07,49,-0.70
2016,12,06,07,50,-0.70
2016,12,06,07,51,-0.70
2016,12,06,07,52,-0.70
2016,12,06,07,53,-0.70
2016,12,06,07,54,-0.70
2016,12,06,07,55,-0.70
2016,12,06,07,56,-0.70
2016,12,06,07,57,-0.70
2016,12,06,07,58,-0.70
2016,12,06,07,59,-0.70
2016,12,06,08,00,-0.70
2016,12,06,08,01,-0.80
2016,12,06,08,02,-0.80
2016,12,06,08,03,-0.80
2016,12,06,08,04,-0.80
2016,12,06,08,05,-0.80
2016,12,06,08,06,-0.80
2016,12,06,08,07,-0.80
2016,12,06,08,08,-0.90
2016,12,06,08,09,-0.90
2016,12,06,08,10,-0.80
2016,12,06,08,11,-0.80
2016,12,06,08,12,-0.80
2016,12,06,08,13,-0.80
2016,12,06,08,14,-0.70
2016,12,06,08,15,-0.70
2016,12,06,08,16,-0.60
2016,12,06,08,17,-0.60
2016,12,06,08,18,-0.60
2016,12,06,08,19,-0.60
2016,12,06,08,20,-0.60
2016,12,06,08,21,-0.60
2016,12,06,08,22,-0.60
2016,12,06,08,23,-0.50
2016,12,06,08,24,-0.50
2016,12,06,08,25,-0.50
2016,12,06,08,26,-0.50
2016,12,06,08,27,-0.50
2016,12,06,08,28,-0.40
2016,12,06,08,29,-0.40
2016,12,06,08,30,-0.40
2016,12,06,08,31,-0.40
2016,12,06,08,32,-0.50
2016,12,06,08,33,-0.50
2016,12,06,08,34,-0.60
2016,12,06,08,35,-0.70
2016,12,06,08,36,-0.80
2016,12,06,08,37,-0.80
2016,12,06,08,38,-0.80
2016,12,06,08,39,-0.90
2016,12,06,08,40,-0.90
2016,12,06,08,41,-0.90
2016,12,06,08,42,-0.90
2016,12,06,08,43,-0.90
2016,12,06,08,44,-0.90
2016,12,06,08,45,-0.80
2016,12,06,08,46,-0.80
2016,12,06,08,47,-0.80
2016,12,06,08,48,-0.80
2016,12,06,08,49,-0.70
2016,12,06,08,50,-0.70
2016,12,06,08,51,-0.70
2016,12,06,08,52,-0.70
2016,12,06,08,53,-0.70
2016,12,06,08,54,-0.60
2016,12,06,08,55,-0.60
2016,12,06,08,56,-0.60
2016,12,06,08,57,-0.60
2016,12,06,08,58,-0.60
2016,12,06,08,59,-0.70
2016,12,06,09,00,-0.70
2016,12,06,09,01,-0.70
2016,12,06,09,02,-0.70
2016,12,06,09,03,-0.70
2016,12,06,09,04,-0.70
2016,12,06,09,05,-0.70
2016,12,06,09,06,-0.70
2016,12,06,09,07,-0.70
2016,12,06,09,08,-0.70
2016,12,06,09,09,-0.70
2016,12,06,09,10,-0.70
2016,12,06,09,11,-0.70
2016,12,06,09,12,-0.70
2016,12,06,09,13,-0.70
2016,12,06,09,14,-0.70
2016,12,06,09,15,-0.70
2016,12,06,09,16,-0.70
2016,12,06,09,17,-0.60
2016,12,06,09,18,-0.60
2016,12,06,09,19,-0.60
2016,12,06,09,20,-0.50
2016,12,06,09,21,-0.50
2016,12,06,09,22,-0.40
2016,12,06,09,23,-0.40
2016,12,06,09,24,-0.30
2016,12,06,09,25,-0.30
2016,12,06,09,26,-0.20
2016,12,06,09,27,-0.20
2016,12,06,09,28,-0.20
2016,12,06,09,29,-0.10
2016,12,06,09,30,-0.10
2016,12,06,09,31,-0.10
2016,12,06,09,32,0.00
2016,12,06,09,33,0.00
2016,12,06,09,34,0.00
2016,12,06,09,35,0.10
2016,12,06,09,36,0.20
2016,12,06,09,37,0.20
2016,12,06,09,38,0.30
2016,12,06,09,39,0.30
2016,12,06,09,40,0.30
2016,12,06,09,41,0.40
2016,12,06,09,42,0.40
2016,12,06,09,43,0.50
2016,12,06,09,44,0.60
2016,12,06,09,45,0.60
2016,12,06,09,46,0.70
2016,12,06,09,47,0.80
2016,12,06,09,48,0.90
2016,12,06,09,49,1.00
2016,12,06,09,50,1.10
2016,12,06,09,51,1.10
2016,12,06,09,52,1.10
2016,12,06,09,53,1.20
2016,12,06,09,54,1.20
2016,12,06,09,55,1.20
2016,12,06,09,56,1.20
2016,12,06,09,57,1.20
2016,12,06,09,58,1.20
2016,12,06,09,59,1.20
2016,12,06,10,00,1.30
2016,12,06,10,01,1.30
2016,12,06,10,02,1.40
2016,12,06,10,03,1.40
2016,12,06,10,04,1.40
2016,12,06,10,05,1.40
2016,12,06,10,06,1.30
2016,12,06,10,07,1.30
2016,12,06,10,08,1.30
2016,12,06,10,09,1.30
2016,12,06,10,10,1.40
2016,12,06,10,11,1.40
2016,12,06,10,12,1.40
2016,12,06,10,13,1.40
2016,12,06,10,14,1.40
2016,12,06,10,15,1.50
2016,12,06,10,16,1.50
2016,12,06,10,17,1.60
2016,12,06,10,18,1.70
2016,12,06,10,19,1.70
2016,12,06,10,20,1.80
2016,12,06,10,21,1.80
2016,12,06,10,22,1.90
2016,12,06,10,23,1.90
2016,12,06,10,24,1.90
2016,12,06,10,25,1.90
2016,12,06,10,26,2.00
2016,12,06,10,27,1.90
2016,12,06,10,28,1.90
2016,12,06,10,29,1.90
2016,12,06,10,30,1.90
2016,12,06,10,31,1.90
2016,12,06,10,32,1.90
2016,12,06,10,33,2.00
2016,12,06,10,34,2.00
2016,12,06,10,35,2.00
2016,12,06,10,36,2.00
2016,12,06,10,37,2.00
2016,12,06,10,38,2.10
2016,12,06,10,39,2.10
2016,12,06,10,40,2.10
2016,12,06,10,41,2.10
2016,12,06,10,42,2.10
2016,12,06,10,43,2.10
2016,12,06,10,44,2.20
2016,12,06,10,45,2.20
2016,12,06,10,46,2.20
2016,12,06,10,47,2.20
2016,12,06,10,48,2.20
2016,12,06,10,49,2.20
2016,12,06,10,50,2.30
2016,12,06,10,51,2.30
2016,12,06,10,52,2.30
2016,12,06,10,53,2.30
2016,12,06,10,54,2.40
2016,12,06,10,55,2.40
2016,12,06,10,56,2.50
2016,12,06,10,57,2.50
2016,12,06,10,58,2.60
2016,12,06,10,59,2.70
2016,12,06,11,00,2.70
2016,12,06,11,01,2.80
2016,12,06,11,02,2.80
2016,12,06,11,03,2.90
2016,12,06,11,04,2.90
2016,12,06,11,05,2.90
2016,12,06,11,06,2.80
2016,12,06,11,07,2.80
2016,12,06,11,08,2.80
2016,12,06,11,09,2.70
2016,12,06,11,10,2.80
2016,12,06,11,11,2.80
2016,12,06,11,12,2.80
2016,12,06,11,13,2.80
2016,12,06,11,14,2.80
2016,12,06,11,15,2.90
2016,12,06,11,16,2.90
2016,12,06,11,17,3.00
2016,12,06,11,18,3.00
2016,12,06,11,19,3.00
2016,12,06,11,20,3.00
2016,12,06,11,21,3.00
2016,12,06,11,22,3.00
2016,12,06,11,23,3.00
2016,12,06,11,24,3.00
2016,12,06,11,25,3.10
2016,12,06,11,26,3.10
2016,12,06,11,27,3.20
2016,12,06,11,28,3.30
2016,12,06,11,29,3.30
2016,12,06,11,30,3.30
2016,12,06,11,31,3.40
2016,12,06,11,32,3.40
2016,12,06,11,33,3.40
2016,12,06,11,34,3.40
2016,12,06,11,35,3.40
2016,12,06,11,36,3.30
2016,12,06,11,37,3.20
2016,12,06,11,38,3.10
2016,12,06,11,39,3.00
2016,12,06,11,40,3.00
2016,12,06,11,41,3.00
2016,12,06,11,42,2.90
2016,12,06,11,43,2.90
2016,12,06,11,44,2.90
2016,12,06,11,45,2.90
2016,12,06,11,46,3.00
2016,12,06,11,47,3.00
2016,12,06,11,48,3.00
2016,12,06,11,49,3.10
2016,12,06,11,50,3.10
2016,12,06,11,51,3.10
2016,12,06,11,52,3.10
2016,12,06,11,53,3.10
2016,12,06,11,54,3.20
2016,12,06,11,55,3.30
2016,12,06,11,56,3.30
2016,12,06,11,57,3.30
2016,12,06,11,58,3.30
2016,12,06,11,59,3.30
2016,12,06,12,00,3.30
2016,12,06,12,01,3.20
2016,12,06,12,02,3.20
2016,12,06,12,03,3.20
2016,12,06,12,04,3.20
2016,12,06,12,05,3.30
2016,12,06,12,06,3.40
2016,12,06,12,07,3.50
2016,12,06,12,08,3.50
2016,12,06,12,09,3.60
2016,12,06,12,10,3.70
2016,12,06,12,11,3.80
2016,12,06,12,12,3.80
2016,12,06,12,13,3.80
2016,12,06,12,14,3.70
2016,12,06,12,15,3.60
2016,12,06,12,16,3.60
2016,12,06,12,17,3.50
2016,12,06,12,18,3.40
2016,12,06,12,19,3.30
2016,12,06,12,20,3.10
2016,12,06,12,21,3.00
2016,12,06,12,22,2.90
2016,12,06,12,23,2.70
2016,12,06,12,24,2.60
2016,12,06,12,25,2.50
2016,12,06,12,26,2.30
2016,12,06,12,27,2.20
2016,12,06,12,28,2.10
2016,12,06,12,29,2.10
2016,12,06,12,30,2.10
2016,12,06,12,31,2.00
2016,12,06,12,32,2.00
2016,12,06,12,33,2.00
2016,12,06,12,34,2.00
2016,12,06,12,35,2.10
2016,12,06,12,36,2.10
2016,12,06,12,37,2.10
2016,12,06,12,38,2.10
2016,12,06,12,39,2.10
2016,12,06,12,40,2.00
2016,12,06,12,41,2.00
2016,12,06,12,42,1.90
2016,12,06,12,43,1.80
2016,12,06,12,44,1.80
2016,12,06,12,45,1.80
2016,12,06,12,46,1.70
2016,12,06,12,47,1.70
2016,12,06,12,48,1.70
2016,12,06,12,49,1.60
2016,12,06,12,50,1.60
2016,12,06,12,51,1.60
2016,12,06,12,52,1.60
2016,12,06,12,53,1.60
2016,12,06,12,54,1.60
2016,12,06,12,55,1.60
2016,12,06,12,56,1.60
2016,12,06,12,57,1.60
2016,12,06,12,58,1.60
2016,12,06,12,59,1.60
2016,12,06,13,00,1.60
2016,12,06,13,01,1.70
2016,12,06,13,02,1.70
2016,12,06,13,03,1.70
2016,12,06,13,04,1.70
2016,12,06,13,05,1.70
2016,12,06,13,06,1.70
2016,12,06,13,07,1.60
2016,12,06,13,08,1.60
2016,12,06,13,09,1.60
2016,12,06,13,10,1.50
2016,12,06,13,11,1.50
2016,12,06,13,12,1.50
2016,12,06,13,13,1.40
2016,12,06,13,14,1.40
2016,12,06,13,15,1.40
2016,12,06,13,16,1.40
2016,12,06,13,17,1.40
2016,12,06,13,18,1.40
2016,12,06,13,19,1.40
2016,12,06,13,20,1.40
2016,12,06,13,21,1.40
2016,12,06,13,22,1.40
2016,12,06,13,23,1.50
2016,12,06,13,24,1.50
2016,12,06,13,25,1.50
2016,12,06,13,26,1.50
2016,12,06,13,27,1.50
2016,12,06,13,28,1.50
2016,12,06,13,29,1.50
2016,12,06,13,30,1.50
2016,12,06,13,31,1.50
2016,12,06,13,32,1.50
2016,12,06,13,33,1.50
2016,12,06,13,34,1.50
2016,12,06,13,35,1.50
2016,12,06,13,36,1.50
2016,12,06,13,37,1.50
2016,12,06,13,38,1.50
2016,12,06,13,39,1.50
2016,12,06,13,40,1.40
2016,12,06,13,41,1.40
2016,12,06,13,42,1.40
2016,12,06,13,43,1.40
2016,12,06,13,44,1.40
2016,12,06,13,45,1.30
2016,12,06,13,46,1.30
2016,12,06,13,47,1.30
2016,12,06,13,48,1.30
2016,12,06,13,49,1.20
2016,12,06,13,50,1.20
2016,12,06,13,51,1.20
2016,12,06,13,52,1.20
2016,12,06,13,53,1.20
2016,12,06,13,54,1.20
2016,12,06,13,55,1.20
2016,12,06,13,56,1.20
2016,12,06,13,57,1.20
2016,12,06,13,58,1.20
2016,12,06,13,59,1.20
2016,12,06,14,00,1.20
2016,12,06,14,01,1.20
2016,12,06,14,02,1.20
2016,12,06,14,03,1.20
2016,12,06,14,04,1.30
2016,12,06,14,05,1.30
2016,12,06,14,06,1.30
2016,12,06,14,07,1.30
2016,12,06,14,08,1.30
2016,12,06,14,09,1.30
2016,12,06,14,10,1.30
2016,12,06,14,11,1.30
2016,12,06,14,12,1.30
2016,12,06,14,13,1.30
2016,12,06,14,14,1.30
2016,12,06,14,15,1.20
2016,12,06,14,16,1.20
2016,12,06,14,17,1.20
2016,12,06,14,18,1.20
2016,12,06,14,19,1.10
2016,12,06,14,20,1.10
2016,12,06,14,21,1.10
2016,12,06,14,22,1.10
2016,12,06,14,23,1.10
2016,12,06,14,24,1.10
2016,12,06,14,25,1.10
2016,12,06,14,26,1.10
2016,12,06,14,27,1.10
2016,12,06,14,28,1.10
2016,12,06,14,29,1.10
2016,12,06,14,30,1.00
2016,12,06,14,31,1.00
2016,12,06,14,32,1.00
2016,12,06,14,33,1.00
2016,12,06,14,34,1.00
2016,12,06,14,35,1.00
2016,12,06,14,36,1.00
2016,12,06,14,37,1.00
2016,12,06,14,38,1.00
2016,12,06,14,39,1.00
2016,12,06,14,40,1.00
2016,12,06,14,41,1.00
2016,12,06,14,42,1.00
2016,12,06,14,43,1.00
2016,12,06,14,44,1.00
2016,12,06,14,45,1.00
2016,12,06,14,46,1.00
2016,12,06,14,47,1.00
2016,12,06,14,48,1.00
2016,12,06,14,49,1.00
2016,12,06,14,50,1.00
2016,12,06,14,51,1.00
2016,12,06,14,52,0.90
2016,12,06,14,53,0.90
2016,12,06,14,54,0.90
2016,12,06,14,55,0.90
2016,12,06,14,56,0.90
2016,12,06,14,57,0.90
2016,12,06,14,58,0.90
2016,12,06,14,59,0.90
2016,12,06,15,00,0.90
2016,12,06,15,01,0.90
2016,12,06,15,02,0.90
2016,12,06,15,03,0.90
2016,12,06,15,04,0.90
2016,12,06,15,05,0.90
2016,12,06,15,06,0.90
2016,12,06,15,07,0.90
2016,12,06,15,08,0.90
2016,12,06,15,09,0.90
2016,12,06,15,10,0.90
2016,12,06,15,11,0.90
2016,12,06,15,12,0.80
2016,12,06,15,13,0.80
2016,12,06,15,14,0.80
2016,12,06,15,15,0.80
2016,12,06,15,16,0.90
2016,12,06,15,17,0.90
2016,12,06,15,18,0.90
2016,12,06,15,19,0.90
2016,12,06,15,20,1.00
2016,12,06,15,21,1.00
2016,12,06,15,22,1.00
2016,12,06,15,23,1.10
2016,12,06,15,24,1.10
2016,12,06,15,25,1.10
2016,12,06,15,26,1.10
2016,12,06,15,27,1.10
2016,12,06,15,28,1.10
2016,12,06,15,29,1.10
2016,12,06,15,30,1.00
2016,12,06,15,31,1.00
2016,12,06,15,32,1.00
2016,12,06,15,33,1.00
2016,12,06,15,34,0.90
2016,12,06,15,35,0.90
2016,12,06,15,36,0.90
2016,12,06,15,37,0.90
2016,12,06,15,38,0.80
2016,12,06,15,39,0.80
2016,12,06,15,40,0.80
2016,12,06,15,41,0.80
2016,12,06,15,42,0.80
2016,12,06,15,43,0.80
2016,12,06,15,44,0.80
2016,12,06,15,45,0.80
2016,12,06,15,46,0.80
2016,12,06,15,47,0.70
2016,12,06,15,48,0.70
2016,12,06,15,49,0.70
2016,12,06,15,50,0.70
2016,12,06,15,51,0.70
2016,12,06,15,52,0.70
2016,12,06,15,53,0.70
2016,12,06,15,54,0.70
2016,12,06,15,55,0.70
2016,12,06,15,56,0.70
2016,12,06,15,57,0.70
2016,12,06,15,58,0.70
2016,12,06,15,59,0.70
2016,12,06,16,00,0.70
2016,12,06,16,01,0.70
2016,12,06,16,02,0.70
2016,12,06,16,03,0.70
2016,12,06,16,04,0.70
2016,12,06,16,05,0.70
2016,12,06,16,06,0.70
2016,12,06,16,07,0.70
2016,12,06,16,08,0.70
2016,12,06,16,09,0.70
2016,12,06,16,10,0.60
2016,12,06,16,11,0.60
2016,12,06,16,12,0.60
2016,12,06,16,13,0.60
2016,12,06,16,14,0.50
2016,12,06,16,15,0.50
2016,12,06,16,16,0.50
2016,12,06,16,17,0.50
2016,12,06,16,18,0.40
2016,12,06,16,19,0.40
2016,12,06,16,20,0.40
2016,12,06,16,21,0.40
2016,12,06,16,22,0.40
2016,12,06,16,23,0.40
2016,12,06,16,24,0.40
2016,12,06,16,25,0.40
2016,12,06,16,26,0.40
2016,12,06,16,27,0.50
2016,12,06,16,28,0.50
2016,12,06,16,29,0.50
2016,12,06,16,30,0.50
2016,12,06,16,31,0.50
2016,12,06,16,32,0.50
2016,12,06,16,33,0.60
2016,12,06,16,34,0.60
2016,12,06,16,35,0.60
2016,12,06,16,36,0.60
2016,12,06,16,37,0.50
2016,12,06,16,38,0.50
2016,12,06,16,39,0.50
2016,12,06,16,40,0.40
2016,12,06,16,41,0.40
2016,12,06,16,42,0.40
2016,12,06,16,43,0.40
2016,12,06,16,44,0.30
2016,12,06,16,45,0.30
2016,12,06,16,46,0.30
2016,12,06,16,47,0.30
2016,12,06,16,48,0.30
2016,12,06,16,49,0.30
2016,12,06,16,50,0.30
2016,12,06,16,51,0.30
2016,12,06,16,52,0.30
2016,12,06,16,53,0.30
2016,12,06,16,54,0.30
2016,12,06,16,55,0.30
2016,12,06,16,56,0.30
2016,12,06,16,57,0.30
2016,12,06,16,58,0.30
2016,12,06,16,59,0.30
2016,12,06,17,00,0.30
2016,12,06,17,01,0.30
2016,12,06,17,02,0.30
2016,12,06,17,03,0.30
2016,12,06,17,04,0.30
2016,12,06,17,05,0.30
2016,12,06,17,06,0.30
2016,12,06,17,07,0.30
2016,12,06,17,08,0.30
2016,12,06,17,09,0.30
2016,12,06,17,10,0.30
2016,12,06,17,11,0.30
2016,12,06,17,12,0.30
2016,12,06,17,13,0.30
2016,12,06,17,14,0.30
2016,12,06,17,15,0.30
2016,12,06,17,16,0.30
2016,12,06,17,17,0.30
2016,12,06,17,18,0.30
2016,12,06,17,19,0.30
2016,12,06,17,20,0.30
2016,12,06,17,21,0.30
2016,12,06,17,22,0.30
2016,12,06,17,23,0.30
2016,12,06,17,24,0.30
2016,12,06,17,25,0.30
2016,12,06,17,26,0.30
2016,12,06,17,27,0.30
2016,12,06,17,28,0.30
2016,12,06,17,29,0.30
2016,12,06,17,30,0.30
2016,12,06,17,31,0.30
2016,12,06,17,32,0.30
2016,12,06,17,33,0.30
2016,12,06,17,34,0.30
2016,12,06,17,35,0.30
2016,12,06,17,36,0.30
2016,12,06,17,37,0.30
2016,12,06,17,38,0.30
2016,12,06,17,39,0.30
2016,12,06,17,40,0.20
2016,12,06,17,41,0.20
2016,12,06,17,42,0.20
2016,12,06,17,43,0.20
2016,12,06,17,44,0.20
2016,12,06,17,45,0.20
2016,12,06,17,46,0.20
2016,12,06,17,47,0.20
2016,12,06,17,48,0.20
2016,12,06,17,49,0.20
2016,12,06,17,50,0.20
2016,12,06,17,51,0.20
2016,12,06,17,52,0.20
2016,12,06,17,53,0.20
2016,12,06,17,54,0.20
2016,12,06,17,55,0.20
2016,12,06,17,56,0.20
2016,12,06,17,57,0.20
2016,12,06,17,58,0.20
2016,12,06,17,59,0.20
2016,12,06,18,00,0.30
2016,12,06,18,01,0.30
2016,12,06,18,02,0.30
2016,12,06,18,03,0.30
2016,12,06,18,04,0.30
2016,12,06,18,05,0.40
2016,12,06,18,06,0.40
2016,12,06,18,07,0.40
2016,12,06,18,08,0.40
2016,12,06,18,09,0.40
2016,12,06,18,10,0.40
2016,12,06,18,11,0.40
2016,12,06,18,12,0.40
2016,12,06,18,13,0.40
2016,12,06,18,14,0.40
2016,12,06,18,15,0.50
2016,12,06,18,16,0.50
2016,12,06,18,17,0.50
2016,12,06,18,18,0.50
2016,12,06,18,19,0.60
2016,12,06,18,20,0.60
2016,12,06,18,21,0.50
2016,12,06,18,22,0.50
2016,12,06,18,23,0.50
2016,12,06,18,24,0.50
2016,12,06,18,25,0.50
2016,12,06,18,26,0.50
2016,12,06,18,27,0.50
2016,12,06,18,28,0.40
2016,12,06,18,29,0.50
2016,12,06,18,30,0.40
2016,12,06,18,31,0.40
2016,12,06,18,32,0.40
2016,12,06,18,33,0.40
2016,12,06,18,34,0.40
2016,12,06,18,35,0.40
2016,12,06,18,36,0.40
2016,12,06,18,37,0.40
2016,12,06,18,38,0.40
2016,12,06,18,39,0.40
2016,12,06,18,40,0.40
2016,12,06,18,41,0.40
2016,12,06,18,42,0.40
2016,12,06,18,43,0.40
2016,12,06,18,44,0.40
2016,12,06,18,45,0.40
2016,12,06,18,46,0.40
2016,12,06,18,47,0.40
2016,12,06,18,48,0.40
2016,12,06,18,49,0.40
2016,12,06,18,50,0.40
2016,12,06,18,51,0.40
2016,12,06,18,52,0.40
2016,12,06,18,53,0.40
2016,12,06,18,54,0.40
2016,12,06,18,55,0.40
2016,12,06,18,56,0.40
2016,12,06,18,57,0.40
2016,12,06,18,58,0.40
2016,12,06,18,59,0.40
2016,12,06,19,00,0.40
2016,12,06,19,01,0.40
2016,12,06,19,02,0.40
2016,12,06,19,03,0.40
2016,12,06,19,04,0.40
2016,12,06,19,05,0.40
2016,12,06,19,06,0.50
2016,12,06,19,07,0.50
2016,12,06,19,08,0.50
2016,12,06,19,09,0.50
2016,12,06,19,10,0.50
2016,12,06,19,11,0.50
2016,12,06,19,12,0.50
2016,12,06,19,13,0.50
2016,12,06,19,14,0.50
2016,12,06,19,15,0.50
2016,12,06,19,16,0.50
2016,12,06,19,17,0.50
2016,12,06,19,18,0.50
2016,12,06,19,19,0.50
2016,12,06,19,20,0.50
2016,12,06,19,21,0.50
2016,12,06,19,22,0.40
2016,12,06,19,23,0.50
2016,12,06,19,24,0.50
2016,12,06,19,25,0.40
2016,12,06,19,26,0.40
2016,12,06,19,27,0.40
2016,12,06,19,28,0.40
2016,12,06,19,29,0.40
2016,12,06,19,30,0.40
2016,12,06,19,31,0.40
2016,12,06,19,32,0.40
2016,12,06,19,33,0.40
2016,12,06,19,34,0.40
2016,12,06,19,35,0.40
2016,12,06,19,36,0.40
2016,12,06,19,37,0.40
2016,12,06,19,38,0.40
2016,12,06,19,39,0.40
2016,12,06,19,40,0.40
2016,12,06,19,41,0.40
2016,12,06,19,42,0.40
2016,12,06,19,43,0.40
2016,12,06,19,44,0.40
2016,12,06,19,45,0.40
2016,12,06,19,46,0.30
2016,12,06,19,47,0.30
2016,12,06,19,48,0.30
2016,12,06,19,49,0.30
2016,12,06,19,50,0.30
2016,12,06,19,51,0.30
2016,12,06,19,52,0.30
2016,12,06,19,53,0.30
2016,12,06,19,54,0.30
2016,12,06,19,55,0.40
2016,12,06,19,56,0.40
2016,12,06,19,57,0.40
2016,12,06,19,58,0.40
2016,12,06,19,59,0.40
2016,12,06,20,00,0.40
2016,12,06,20,01,0.40
2016,12,06,20,02,0.40
2016,12,06,20,03,0.40
2016,12,06,20,04,0.40
2016,12,06,20,05,0.40
2016,12,06,20,06,0.40
2016,12,06,20,07,0.40
2016,12,06,20,08,0.40
2016,12,06,20,09,0.40
2016,12,06,20,10,0.40
2016,12,06,20,11,0.40
2016,12,06,20,12,0.40
2016,12,06,20,13,0.40
2016,12,06,20,14,0.40
2016,12,06,20,15,0.40
2016,12,06,20,16,0.40
2016,12,06,20,17,0.30
2016,12,06,20,18,0.30
2016,12,06,20,19,0.30
2016,12,06,20,20,0.30
2016,12,06,20,21,0.30
2016,12,06,20,22,0.30
2016,12,06,20,23,0.30
2016,12,06,20,24,0.30
2016,12,06,20,25,0.30
2016,12,06,20,26,0.30
2016,12,06,20,27,0.30
2016,12,06,20,28,0.30
2016,12,06,20,29,0.30
2016,12,06,20,30,0.30
2016,12,06,20,31,0.30
2016,12,06,20,32,0.30
2016,12,06,20,33,0.30
2016,12,06,20,34,0.30
2016,12,06,20,35,0.30
2016,12,06,20,36,0.20
2016,12,06,20,37,0.20
2016,12,06,20,38,0.20
2016,12,06,20,39,0.20
2016,12,06,20,40,0.20
2016,12,06,20,41,0.20
2016,12,06,20,42,0.20
2016,12,06,20,43,0.20
2016,12,06,20,44,0.20
2016,12,06,20,45,0.30
2016,12,06,20,46,0.30
2016,12,06,20,47,0.30
2016,12,06,20,48,0.30
2016,12,06,20,49,0.30
2016,12,06,20,50,0.30
2016,12,06,20,51,0.30
2016,12,06,20,52,0.30
2016,12,06,20,53,0.30
2016,12,06,20,54,0.30
2016,12,06,20,55,0.30
2016,12,06,20,56,0.30
2016,12,06,20,57,0.30
2016,12,06,20,58,0.30
2016,12,06,20,59,0.30
2016,12,06,21,00,0.30
2016,12,06,21,01,0.30
2016,12,06,21,02,0.30
2016,12,06,21,03,0.20
2016,12,06,21,04,0.20
2016,12,06,21,05,0.30
2016,12,06,21,06,0.30
2016,12,06,21,07,0.30
2016,12,06,21,08,0.30
2016,12,06,21,09,0.30
2016,12,06,21,10,0.30
2016,12,06,21,11,0.30
2016,12,06,21,12,0.30
2016,12,06,21,13,0.30
2016,12,06,21,14,0.30
2016,12,06,21,15,0.30
2016,12,06,21,16,0.30
2016,12,06,21,17,0.30
2016,12,06,21,18,0.30
2016,12,06,21,19,0.30
2016,12,06,21,20,0.30
2016,12,06,21,21,0.30
2016,12,06,21,22,0.30
2016,12,06,21,23,0.30
2016,12,06,21,24,0.30
2016,12,06,21,25,0.30
2016,12,06,21,26,0.30
2016,12,06,21,27,0.30
2016,12,06,21,28,0.30
2016,12,06,21,29,0.30
2016,12,06,21,30,0.30
2016,12,06,21,31,0.30
2016,12,06,21,32,0.30
2016,12,06,21,33,0.30
2016,12,06,21,34,0.30
2016,12,06,21,35,0.30
2016,12,06,21,36,0.30
2016,12,06,21,37,0.30
2016,12,06,21,38,0.30
2016,12,06,21,39,0.20
2016,12,06,21,40,0.20
2016,12,06,21,41,0.20
2016,12,06,21,42,0.20
2016,12,06,21,43,0.20
2016,12,06,21,44,0.20
2016,12,06,21,45,0.20
2016,12,06,21,46,0.20
2016,12,06,21,47,0.20
2016,12,06,21,48,0.20
2016,12,06,21,49,0.10
2016,12,06,21,50,0.10
2016,12,06,21,51,0.10
2016,12,06,21,52,0.10
2016,12,06,21,53,0.10
2016,12,06,21,54,0.10
2016,12,06,21,55,0.10
2016,12,06,21,56,0.10
2016,12,06,21,57,0.10
2016,12,06,21,58,0.10
2016,12,06,21,59,0.10
2016,12,06,22,00,0.10
2016,12,06,22,01,0.10
2016,12,06,22,02,0.10
2016,12,06,22,03,0.10
2016,12,06,22,04,0.10
2016,12,06,22,05,0.10
2016,12,06,22,06,0.10
2016,12,06,22,07,0.10
2016,12,06,22,08,0.10
2016,12,06,22,09,0.10
2016,12,06,22,10,0.10
2016,12,06,22,11,0.10
2016,12,06,22,12,0.10
2016,12,06,22,13,0.10
2016,12,06,22,14,0.10
2016,12,06,22,15,0.10
2016,12,06,22,16,0.10
2016,12,06,22,17,0.00
2016,12,06,22,18,0.00
2016,12,06,22,19,0.00
2016,12,06,22,20,0.00
2016,12,06,22,21,-0.10
2016,12,06,22,22,-0.10
2016,12,06,22,23,-0.10
2016,12,06,22,24,-0.10
2016,12,06,22,25,-0.10
2016,12,06,22,26,-0.10
2016,12,06,22,27,-0.20
2016,12,06,22,28,-0.20
2016,12,06,22,29,-0.20
2016,12,06,22,30,-0.20
2016,12,06,22,31,-0.20
2016,12,06,22,32,-0.20
2016,12,06,22,33,-0.20
2016,12,06,22,34,-0.20
2016,12,06,22,35,-0.20
2016,12,06,22,36,-0.20
2016,12,06,22,37,-0.30
2016,12,06,22,38,-0.30
2016,12,06,22,39,-0.30
2016,12,06,22,40,-0.30
2016,12,06,22,41,-0.30
2016,12,06,22,42,-0.30
2016,12,06,22,43,-0.30
2016,12,06,22,44,-0.30
2016,12,06,22,45,-0.30
2016,12,06,22,46,-0.30
2016,12,06,22,47,-0.30
2016,12,06,22,48,-0.30
2016,12,06,22,49,-0.30
2016,12,06,22,50,-0.30
2016,12,06,22,51,-0.30
2016,12,06,22,52,-0.30
2016,12,06,22,53,-0.30
2016,12,06,22,54,-0.30
2016,12,06,22,55,-0.30
2016,12,06,22,56,-0.30
2016,12,06,22,57,-0.30
2016,12,06,22,58,-0.30
2016,12,06,22,59,-0.30
2016,12,06,23,00,-0.30
2016,12,06,23,01,-0.30
2016,12,06,23,02,-0.30
2016,12,06,23,03,-0.30
2016,12,06,23,04,-0.30
2016,12,06,23,05,-0.30
2016,12,06,23,06,-0.30
2016,12,06,23,07,-0.30
2016,12,06,23,08,-0.30
2016,12,06,23,09,-0.30
2016,12,06,23,10,-0.30
2016,12,06,23,11,-0.30
2016,12,06,23,12,-0.30
2016,12,06,23,13,-0.30
2016,12,06,23,14,-0.40
2016,12,06,23,15,-0.40
2016,12,06,23,16,-0.40
2016,12,06,23,17,-0.40
2016,12,06,23,18,-0.40
2016,12,06,23,19,-0.50
2016,12,06,23,20,-0.50
2016,12,06,23,21,-0.50
2016,12,06,23,22,-0.50
2016,12,06,23,23,-0.50
2016,12,06,23,24,-0.50
2016,12,06,23,25,-0.50
2016,12,06,23,26,-0.50
2016,12,06,23,27,-0.50
2016,12,06,23,28,-0.50
2016,12,06,23,29,-0.60
2016,12,06,23,30,-0.60
2016,12,06,23,31,-0.60
2016,12,06,23,32,-0.60
2016,12,06,23,33,-0.70
2016,12,06,23,34,-0.70
2016,12,06,23,35,-0.70
2016,12,06,23,36,-0.70
2016,12,06,23,37,-0.70
2016,12,06,23,38,-0.70
2016,12,06,23,39,-0.70
2016,12,06,23,40,-0.70
2016,12,06,23,41,-0.70
2016,12,06,23,42,-0.70
2016,12,06,23,43,-0.70
2016,12,06,23,44,-0.70
2016,12,06,23,45,-0.60
2016,12,06,23,46,-0.60
2016,12,06,23,47,-0.60
2016,12,06,23,48,-0.60
2016,12,06,23,49,-0.60
2016,12,06,23,50,-0.60
2016,12,06,23,51,-0.60
2016,12,06,23,52,-0.70
2016,12,06,23,53,-0.70
2016,12,06,23,54,-0.70
2016,12,06,23,55,-0.70
2016,12,06,23,56,-0.70
2016,12,06,23,57,-0.70
2016,12,06,23,58,-0.70
2016,12,06,23,59,-0.70
